TimeCDT,TemperatureF,Dew PointF,Humidity,Sea Level PressureIn,VisibilityMPH,Wind Direction,Wind SpeedMPH,Gust SpeedMPH,PrecipitationIn,Events,Conditions,WindDirDegrees,DateUTC
12:53 AM,27.0,19.0,72,30.11,10.0,WNW,13.8,-,N/A,,Clear,300,2013-04-19 05:53:00
1:53 AM,25.0,18.0,75,30.09,10.0,NW,8.1,-,N/A,,Clear,310,2013-04-19 06:53:00
2:53 AM,21.9,17.1,82,30.08,10.0,NW,6.9,-,N/A,,Clear,320,2013-04-19 07:53:00
3:53 AM,21.0,17.1,85,30.08,10.0,WNW,4.6,-,N/A,,Clear,290,2013-04-19 08:53:00
4:53 AM,21.9,18.0,85,30.07,10.0,West,4.6,-,N/A,,Clear,270,2013-04-19 09:53:00
5:53 AM,21.9,18.0,85,30.06,10.0,West,5.8,-,N/A,,Partly Cloudy,280,2013-04-19 10:53:00
6:53 AM,26.1,21.0,81,30.03,10.0,West,9.2,-,N/A,,Overcast,270,2013-04-19 11:53:00
7:53 AM,28.0,23.0,81,30.04,10.0,WNW,8.1,-,N/A,,Mostly Cloudy,290,2013-04-19 12:53:00
8:53 AM,33.1,21.9,64,30.04,10.0,WNW,11.5,-,N/A,,Clear,300,2013-04-19 13:53:00
9:53 AM,43.0,26.1,51,30.03,10.0,NW,16.1,-,N/A,,Clear,310,2013-04-19 14:53:00
10:53 AM,46.0,27.0,47,30.02,10.0,NNW,23.0,26.5,N/A,,Clear,330,2013-04-19 15:53:00
11:53 AM,46.9,25.0,42,30.04,10.0,NNW,17.3,28.8,N/A,,Mostly Cloudy,340,2013-04-19 16:53:00
12:53 PM,48.9,27.0,43,30.04,10.0,NNW,20.7,28.8,N/A,,Scattered Clouds,330,2013-04-19 17:53:00
1:53 PM,48.9,27.0,43,30.04,10.0,NNW,16.1,-,N/A,,Overcast,330,2013-04-19 18:53:00
2:53 PM,50.0,28.0,43,30.04,10.0,NNW,18.4,27.6,N/A,,Mostly Cloudy,330,2013-04-19 19:53:00
3:53 PM,51.1,28.9,43,30.04,10.0,North,17.3,25.3,N/A,,Scattered Clouds,350,2013-04-19 20:53:00
4:53 PM,51.1,28.9,43,30.03,10.0,North,16.1,21.9,N/A,,Clear,350,2013-04-19 21:53:00
5:53 PM,48.9,28.9,46,30.04,10.0,NNE,11.5,-,N/A,,Partly Cloudy,20,2013-04-19 22:53:00
6:53 PM,48.9,28.9,46,30.03,10.0,North,12.7,-,N/A,,Partly Cloudy,10,2013-04-19 23:53:00
7:53 PM,44.1,28.0,53,30.05,10.0,NNE,5.8,-,N/A,,Clear,30,2013-04-20 00:53:00
8:53 PM,37.0,27.0,67,30.06,10.0,NE,8.1,-,N/A,,Clear,50,2013-04-20 01:53:00
9:53 PM,32.0,26.1,79,30.07,10.0,NE,5.8,-,N/A,,Clear,40,2013-04-20 02:53:00
10:53 PM,34.0,28.0,79,30.06,10.0,ENE,5.8,-,N/A,,Partly Cloudy,70,2013-04-20 03:53:00
11:53 PM,33.1,28.0,82,30.06,10.0,East,5.8,-,N/A,,Clear,100,2013-04-20 04:53:00